Thibaut Dromigny

Thibaut Dromigny

Statistiques 2026

  • Courses courues : 170
  • Nb de victoires : 11
  • Nb de places : 45
  • Écart gagnant : 3
  • Réussite à la gagne : 6%
  • Réussite à la place : 26%
Musique : Da 5a Aa 1a 2a 4a 7m 6a 6a 5a 0a 0a 7m 1m 2m 2a 2m 2a
DateRangCatégorieAlloc.Dist.HippodromeChevalRed. KmSpé.
03/10/22 4 Trot 16 000€ 2 825m Le Croise Laroche Ieussec Express 1'16"4 Monté
04/10/22 8 Trot 39 000€ 2 200m Vincennes Jalucine Delavoire 1'17"5 Monté
06/10/22 9 Trot 21 000€ 2 775m Cabourg Irma Babel 1'16"6 Attelé
13/10/22 4 Trot 33 000€ 3 000m Marseille Borely Hiro Magis 1'16"7 Monté
13/10/22 2 Trot 38 000€ 2 300m Marseille Borely Concerto Cointerie 1'13"6 Attelé
14/10/22 5 Trot 20 000€ 2 850m Lyon Parilly Ideal des Liards 1'17"3 Monté
16/10/22 3 Trot 13 000€ 2 600m Nancy Jakady d'Emeraude 1'17"7 Attelé
16/10/22 7 Trot 10 000€ 2 625m Nancy Gypse Blanc 1'17"0 Attelé
16/10/22 4 Trot 19 000€ 2 625m Nancy Fenix du Rabutin 1'15"3 Attelé
16/10/22 6 Trot 14 000€ 2 625m Nancy Godwin Djoc 1'15"9 Attelé
17/10/22 D Trot 39 000€ 2 250m Enghien Soisy Ikigai d'Ombree Monté
19/10/22 D Trot 22 000€ 2 050m Feurs Jerry Paulois Attelé
19/10/22 D Trot 28 000€ 2 875m Feurs Emir de Chenu Monté
22/10/22 D Trot 51 000€ 2 150m Enghien Soisy Fakir de Gesvres Attelé
23/10/22 3 Trot 20 000€ 2 550m Reims Herbagere Decrepon 1'15"7 Attelé
23/10/22 2 Trot 20 000€ 2 550m Reims Irma Babel 1'17"0 Attelé
23/10/22 D Trot 20 000€ 2 550m Reims Isabelle Story Monté
24/10/22 4 Trot 19 000€ 2 800m Strasbourg Hurricane Of Love 1'17"6 Monté
24/10/22 2 Trot 24 000€ 2 825m Strasbourg Fine du Colombier 1'15"4 Monté
24/10/22 D Trot 21 000€ 2 825m Strasbourg Hidao de la Goutte Attelé
24/10/22 9 Trot 19 000€ 2 825m Strasbourg Godwin Djoc 1'15"4 Attelé
26/10/22 6 Trot 39 000€ 2 875m Enghien Soisy Jerry Paulois 1'16"8 Monté
28/10/22 5 Trot 57 000€ 2 850m Vincennes Dothia 1'14"8 Attelé lire

Longtemps dans la dernière partie du peloton, a conclu de bonne façon.

30/10/22 6 Trot 19 000€ 2 400m Amiens Iseult de Bellou 1'15"7 Attelé
30/10/22 D Trot 19 000€ 2 400m Amiens Just Like That Attelé
31/10/22 8 Trot 21 000€ 2 750m Cabourg Iodosis 1'17"1 Monté
31/10/22 0 Trot 21 000€ 2 750m Cabourg Japsor de Guez Monté
01/11/22 D Trot 27 000€ 2 700m Le Croise Laroche Fokker de Bailly Attelé
01/11/22 5 Trot 20 000€ 2 825m Le Croise Laroche Gamine de Ribeau 1'15"9 Attelé
02/11/22 D Trot 19 000€ 2 650m Marseille Vivaux Helsinki Monté
04/11/22 0 Trot 18 000€ 2 825m Le Croise Laroche Jet de Mai Monté
04/11/22 D Trot 19 000€ 2 700m Le Croise Laroche Heracles du Mont Attelé
04/11/22 D Trot 33 000€ 2 700m Le Croise Laroche Dilf de Chamant Attelé
06/11/22 4 Trot 11 000€ 2 200m Strasbourg Kristal des Moyeux 1'18"5 Attelé
06/11/22 0 Trot 13 000€ 2 800m Strasbourg Ixie Sautreuil Attelé
06/11/22 0 Trot 20 000€ 2 800m Strasbourg Godwin Djoc Attelé
07/11/22 2 Trot 24 000€ 2 650m Marseille Vivaux Hiro Magis 1'16"3 Monté
09/11/22 8 Trot 25 000€ 2 650m Saint Galmier Fine du Colombier 1'16"6 Monté
10/11/22 2 Trot 39 000€ 2 700m Vincennes I Love Igny 1'13"7 Attelé
11/11/22 4 Trot 13 000€ 2 400m Chateaubriant Just Love d'Alsace 1'17"8 Monté
11/11/22 D Trot 13 000€ 2 400m Chateaubriant Jade Or l'Espoir Monté
14/11/22 5 Trot 26 000€ 2 825m Le Croise Laroche Emir Petteviniere 1'15"5 Attelé
14/11/22 D Trot 20 000€ 2 700m Le Croise Laroche Gamine de Ribeau Attelé
15/11/22 8 Trot 33 000€ 2 100m Vincennes Irma Babel 1'13"7 Attelé
25/11/22 6 Trot 29 000€ 2 975m Toulouse Emir de Chenu 1'15"9 Monté
26/11/22 4 Trot 20 000€ 2 550m Reims Hidao de la Goutte 1'14"0 Attelé
02/12/22 D Trot 39 000€ 2 850m Vincennes I Love Igny Attelé
02/12/22 2 Trot 17 000€ 2 800m Chartres Haribelo de Nuit 1'15"6 Attelé
02/12/22 6 Trot 27 000€ 2 800m Chartres Fidelio du Loisir 1'15"9 Monté
03/12/22 0 Trot 39 000€ 2 700m Vincennes Hidao de la Goutte Attelé lire

Jamais loin dans le parcours, a progressé en épaisseur le nez au vent dans la montée avant de marquer le pas.